Temperature
7 8 8 7 7 7 6 6 6 7 7 8 8 7 8 7 7 6 5 5 4 4 3 3 3 3 3 3 3 4 4 4 4 4 4 4 4 4 5 5 5 5 5 5
6 7 7 7 7 7 7 7 7 7 7 8 8 8 8 7 6 6 5 4 4 3 3 3 3 3 3 3 3 3 3 3 3 3 4 4 4 4 4 4 4 4 4 4
6 7 7 6 8 7 7 7 7 6 7 8 7 7 7 7 6 5 5 4 4 3 3 3 3 3 3 3 3 3 3 3 3 3 3 3 3 4 4 3 3 4 4 4
5 6 6 8 9 9 8 8 8 7 8 8 8 8 7 7 6 5 5 4 4 4 3 3 3 3 3 2 2 2 2 2 2 2 2 3 3 3 3 3 3 3 3 3
5 5 7 8 8 8 7 7 8 7 8 8 8 7 7 7 6 5 5 4 4 4 3 3 3 3 2 2 2 2 2 2 2 2 2 2 2 2 2 2 3 3 3 3
5 5 6 8 7 8 7 6 8 8 7 7 6 4 5 7 6 5 4 4 4 4 3 3 3 2 2 2 2 2 2 2 2 2 2 2 2 1 2 1 2 2 2 2
4 4 6 8 7 7 6 6 7 7 7 7 5 5 6 6 5 5 4 4 4 3 3 3 3 2 2 2 2 2 1 1 1 1 1 1 1 1 1 1 1 1 1 1
4 4 5 6 6 5 6 7 7 7 6 6 6 5 5 5 5 4 4 4 3 3 3 3 2 2 2 2 2 1 1 1 1 1 1 1 1 1 0 0 0 0 0 0
5 6 7 7 7 7 7 7 6 6 6 6 5 5 5 4 4 4 4 3 3 3 3 2 2 2 2 2 1 1 1 1 1 0 0 0 0 0 -0 -0 -0 -1 -1 -1
5 5 7 8 7 7 7 6 6 5 5 5 5 4 4 4 4 3 3 3 3 3 2 2 2 2 1 1 1 1 1 0 0 0 -0 -0 -0 -1 -1 -1 -1 -1 -1 -1
4 5 6 7 7 7 6 6 5 5 5 4 4 4 4 3 3 3 3 3 3 2 2 2 2 1 1 1 1 0 0 -0 -0 -0 -1 -1 -1 -1 -1 -1 -2 -2 -2 -2
4 6 5 6 7 6 6 5 5 5 4 4 4 3 3 3 3 3 2 2 2 2 2 2 1 1 1 1 0 -0 -0 -0 -1 -1 -1 -1 -2 -1 -2 -2 -2 -2 -2 -2
6 6 6 6 6 5 5 5 4 4 4 4 4 3 3 3 3 2 2 2 2 2 2 1 1 1 1 0 0 -0 -1 -1 -1 -1 -2 -2 -2 -2 -2 -2 -2 -2 -3 -3
5 5 5 5 5 5 4 4 4 4 3 3 3 3 3 2 2 2 2 2 2 1 1 1 1 1 0 0 -0 -1 -1 -1 -1 -2 -2 -2 -3 -3 -3 -3 -3 -3 -3 -3
4 4 4 4 4 4 4 3 3 3 3 3 3 3 2 2 2 2 2 1 1 1 1 1 0 0 0 -0 -0 -1 -1 -1 -2 -2 -2 -3 -3 -3 -3 -4 -4 -4 -4 -3
4 4 4 3 3 3 3 3 2 2 2 2 2 2 2 2 2 1 1 1 1 1 1 0 0 -0 -0 -1 -1 -1 -1 -2 -2 -3 -3 -3 -3 -4 -4 -4 -4 -5 -5 -5
3 3 3 3 3 3 2 2 2 2 2 2 2 2 1 1 1 1 1 1 0 0 -0 -0 -0 -1 -1 -1 -1 -1 -2 -2 -2 -3 -3 -3 -4 -4 -4 -5 -5 -5 -5 -5
3 3 3 3 2 2 2 2 2 1 1 1 1 1 1 1 1 1 0 0 -0 -0 -0 -1 -1 -1 -1 -1 -2 -2 -2 -2 -3 -3 -3 -4 -4 -4 -5 -5 -5 -5 -5 -5
3 3 2 2 2 2 2 1 1 1 1 1 1 1 1 0 0 0 -0 -1 -1 -1 -0 -1 -1 -1 -1 -2 -2 -2 -3 -3 -3 -4 -4 -4 -5 -5 -5 -5 -5 -5 -6 -6
3 3 2 2 2 2 2 1 1 1 1 0 0 0 0 0 -0 -1 -1 -1 -1 -1 -1 -1 -1 -2 -2 -2 -2 -3 -3 -3 -4 -4 -4 -5 -5 -5 -5 -6 -6 -6 -6 -6
3 3 2 2 2 2 1 1 1 1 0 0 0 0 -0 -0 -1 -1 -1 -1 -1 -1 -2 -2 -2 -2 -2 -3 -3 -3 -3 -4 -4 -4 -5 -5 -5 -6 -6 -6 -6 -6 -6 -6
3 2 2 2 2 2 1 1 0 0 0 -0 -0 -1 -1 -1 -1 -1 -2 -2 -2 -2 -2 -2 -2 -3 -3 -3 -3 -4 -4 -4 -5 -5 -5 -5 -6 -6 -6 -6 -6 -6 -7 -7
2 2 2 2 1 1 1 0 0 -0 -0 -0 -1 -1 -1 -1 -2 -2 -2 -2 -2 -2 -3 -3 -3 -3 -3 -4 -4 -4 -4 -5 -5 -5 -6 -6 -6 -6 -6 -7 -7 -7 -7 -7
2 2 2 1 1 1 0 0 -0 -0 -1 -1 -1 -1 -2 -2 -2 -2 -2 -2 -3 -3 -3 -3 -4 -4 -4 -4 -4 -5 -5 -5 -6 -6 -6 -6 -6 -7 -7 -7 -7 -7 -7 -7
2 2 1 1 1 0 -0 -0 -1 -1 -1 -1 -1 -2 -2 -2 -2 -2 -3 -3 -3 -3 -4 -4 -4 -4 -5 -5 -5 -5 -5 -6 -6 -6 -6 -7 -7 -7 -7 -7 -7 -7 -8 -8
1 1 1 0 0 -0 -0 -1 -1 -1 -1 -2 -2 -2 -2 -2 -3 -3 -3 -3 -4 -4 -4 -4 -5 -5 -5 -5 -5 -6 -6 -6 -6 -7 -7 -7 -7 -7 -8 -8 -8 -8 -8 -8
1 1 0 -0 -0 -1 -1 -1 -1 -1 -2 -2 -2 -2 -2 -3 -3 -3 -4 -4 -4 -4 -5 -5 -5 -5 -5 -6 -6 -6 -6 -7 -7 -7 -7 -7 -8 -8 -8 -8 -8 -8 -8 -8
Wind_Speed
8 9 7 8 8 8 9 8 6 6 6 6 4 3 2 1 0 1 2 3 3 4 4 4 5 5 6 6 6 6 6 6 6 6 6 5 5 6 6 5 5 4 3 3
6 7 8 10 10 10 10 9 10 10 10 5 2 2 2 2 1 2 2 2 3 3 4 4 5 5 5 6 6 6 6 6 6 6 7 6 5 5 5 5 5 5 4 3
4 3 6 8 9 10 7 7 7 8 6 2 2 3 3 3 2 2 1 2 2 2 3 3 3 4 4 5 5 5 5 5 5 6 6 6 6 6 6 5 5 5 5 4
4 5 6 5 1 3 6 6 7 7 5 3 3 3 3 3 3 2 1 1 2 2 2 2 2 3 3 4 4 5 5 5 6 6 6 6 6 6 6 5 4 4 5 5
3 5 7 4 3 3 4 5 5 6 5 2 1 2 4 3 2 2 2 2 2 2 2 2 2 2 3 3 3 4 5 5 6 6 6 6 6 6 6 5 5 5 5 5
3 4 6 3 3 3 2 4 2 3 2 1 1 2 4 1 1 1 1 1 1 1 1 1 2 2 2 2 3 4 4 5 5 5 5 6 6 6 5 5 5 5 5 5
6 6 7 2 4 4 3 4 0 1 2 2 3 4 2 1 1 2 1 1 1 1 1 2 1 2 2 2 3 3 3 3 4 4 4 5 5 5 5 5 5 5 5 5
5 6 8 4 5 5 4 1 0 2 2 3 3 3 2 2 2 2 2 2 2 2 2 2 1 1 2 3 3 2 3 3 4 4 4 5 5 5 5 5 5 5 5 5
7 8 3 5 5 4 1 2 2 3 3 3 4 4 4 4 4 4 4 3 3 2 2 2 2 1 3 3 2 2 2 3 4 4 4 4 5 5 5 5 5 5 5 5
6 8 6 6 6 6 5 5 4 4 4 4 5 5 5 4 4 4 4 4 3 3 4 3 2 2 3 3 2 2 2 3 3 3 4 4 4 3 4 4 5 5 5 6
8 8 7 7 6 5 4 4 4 5 5 5 5 6 6 5 5 4 4 4 4 4 5 4 3 3 2 2 1 2 2 2 3 3 3 4 4 3 3 3 4 5 4 5
10 6 5 5 3 2 3 4 5 5 6 5 5 6 6 5 5 5 4 4 4 5 5 4 3 3 2 2 2 2 2 2 2 2 3 3 4 5 5 4 6 7 7 7
10 6 6 7 5 4 5 5 5 6 6 6 5 5 6 6 5 5 5 5 5 5 5 4 4 3 3 2 2 2 2 2 2 2 2 3 3 4 5 6 7 7 8 9
8 6 8 7 6 5 5 5 5 5 6 5 5 5 5 5 5 5 5 5 5 4 4 4 4 4 3 2 2 3 2 2 2 2 2 2 3 4 4 5 6 6 7 9
9 8 8 6 5 5 4 4 5 6 6 5 4 5 5 6 6 6 5 4 4 4 4 4 4 4 3 3 3 3 2 2 2 2 2 2 3 3 4 5 5 6 6 7
6 6 6 7 8 7 6 6 7 7 6 6 5 6 6 6 6 5 4 4 4 6 5 4 5 4 3 3 3 2 2 3 2 2 2 2 2 3 4 4 5 5 5 6
7 7 7 7 8 8 7 7 7 6 6 6 6 6 5 5 4 5 4 4 5 5 4 4 4 3 3 3 3 2 2 2 3 2 2 2 2 3 3 4 4 5 5 6
9 8 7 7 6 7 7 6 6 7 6 6 5 4 5 5 6 6 5 3 3 3 3 3 3 3 3 3 3 2 2 2 2 2 2 2 3 3 3 4 5 5 5 6
6 6 6 6 6 5 6 6 6 6 5 4 5 6 6 6 6 5 4 3 4 5 4 3 4 3 3 4 3 2 2 2 2 2 2 4 4 3 3 4 4 4 5 5
4 4 4 4 4 5 5 5 5 5 5 5 5 5 5 5 5 4 4 5 5 4 3 3 4 3 3 4 4 2 2 2 2 2 2 2 3 3 3 3 4 4 4 4
5 4 4 4 5 5 5 5 4 5 4 4 5 5 5 4 4 3 3 4 4 3 3 4 3 3 3 3 4 2 2 2 2 3 3 3 3 3 3 3 4 4 4 4
4 4 4 4 4 5 4 4 4 5 4 4 4 4 4 4 3 3 4 4 3 3 3 3 3 4 4 3 2 2 3 3 2 2 2 3 3 3 3 3 4 4 4 4
4 4 4 4 5 5 4 4 4 4 5 5 5 4 4 4 3 3 4 3 2 4 3 3 4 5 5 3 2 2 3 3 3 3 3 3 3 3 3 4 4 4 4 4
5 4 4 4 3 3 4 4 4 3 3 3 3 4 3 3 2 2 2 3 3 3 2 3 4 5 4 2 2 2 2 3 3 3 3 3 2 3 3 3 4 3 3 4
5 5 4 4 4 5 5 4 3 3 2 2 3 3 2 2 3 2 1 2 3 2 1 3 4 4 2 2 2 2 2 3 3 3 2 2 3 3 3 3 3 3 3 4
5 5 5 6 5 4 4 3 3 3 2 2 2 2 1 1 2 2 2 2 2 2 2 1 2 2 1 2 2 2 2 3 3 3 3 3 3 3 3 3 4 3 3 4
5 5 4 4 4 5 4 4 4 4 4 4 3 2 2 2 2 2 2 2 2 2 1 1 1 1 1 2 2 2 2 2 2 3 3 3 3 3 3 4 3 3 3 3
Wind_Direction
278 283 274 257 247 228 220 223 235 262 270 272 271 258 254 245 341 349 349 348 350 351 352 354 355 357 358 356 356 354 1 3 357 353 350 353 357 1 4 6 9 5 358 357
276 258 259 262 248 235 234 235 246 265 276 262 225 226 236 234 229 294 317 338 340 340 344 345 347 350 352 350 350 356 0 355 352 352 351 355 358 1 5 6 6 4 359 355
279 284 300 269 237 214 216 215 219 242 252 249 251 251 253 239 229 254 291 324 325 320 321 329 334 338 339 338 346 355 353 351 353 353 353 353 359 4 1 356 356 356 351 350
289 313 263 244 60 178 215 235 227 246 267 266 253 260 254 226 206 227 259 285 297 306 307 311 319 326 328 337 350 351 350 353 356 356 353 353 0 1 353 345 349 345 344 345
280 281 275 248 194 180 214 260 228 235 254 270 356 315 265 194 160 207 230 247 254 274 286 302 312 312 321 333 344 348 348 351 354 355 352 354 355 351 346 344 346 342 343 346
258 264 259 259 126 91 85 273 234 204 228 222 82 272 267 177 158 218 222 211 238 281 297 307 318 322 311 317 333 340 341 345 349 352 351 350 345 341 339 339 338 335 337 343
239 253 265 241 143 128 178 249 126 218 235 211 225 238 266 286 216 209 214 219 227 266 276 282 305 316 312 325 323 322 331 340 344 344 343 343 341 343 340 341 341 341 339 342
207 229 251 170 146 192 222 148 235 273 262 253 259 276 272 263 237 223 223 222 223 239 263 276 283 294 299 302 306 323 333 336 337 336 339 343 340 341 343 346 346 346 345 342
212 225 238 178 202 222 187 251 263 271 273 269 269 268 262 256 243 232 226 225 222 225 248 261 254 253 275 290 310 327 327 324 326 331 335 337 339 341 343 345 347 345 343 337
265 261 259 242 239 242 231 244 262 269 270 266 267 270 269 255 249 239 229 228 225 224 237 251 252 256 264 287 311 315 314 316 322 329 333 334 334 337 339 339 340 339 337 332
257 268 279 259 247 250 247 252 267 266 258 252 253 264 263 259 251 241 235 227 226 229 233 239 239 250 265 278 291 289 295 304 317 325 327 327 328 328 327 325 331 326 322 322
246 245 247 273 284 272 256 254 255 260 265 258 246 254 260 261 252 241 233 230 233 236 240 240 231 237 246 252 248 254 281 299 309 317 321 324 328 331 331 322 330 331 328 325
250 267 271 280 283 273 263 261 259 255 256 262 255 249 256 260 255 241 235 230 229 233 236 237 234 232 229 227 229 234 254 277 295 303 311 316 323 327 328 330 328 326 330 333
251 260 268 265 265 268 262 264 265 264 259 253 251 252 254 259 258 247 239 236 232 230 229 227 231 233 221 211 218 231 241 251 269 282 296 304 311 315 317 321 326 329 330 331
245 236 244 261 264 264 261 263 267 267 265 262 254 250 250 254 255 251 246 237 231 228 227 222 228 235 214 203 209 223 232 247 265 282 292 296 305 310 312 314 316 319 325 331
242 242 247 251 255 257 254 251 252 257 258 258 257 254 251 251 255 254 241 222 223 232 229 222 228 230 204 198 206 220 230 242 258 280 289 293 302 307 310 311 313 314 318 323
239 245 245 250 252 253 248 246 249 253 255 256 256 257 258 256 258 253 242 230 229 234 228 218 223 212 193 195 202 221 234 241 246 265 264 271 285 290 297 301 303 305 309 317
232 236 234 240 247 253 254 253 252 253 255 259 259 252 247 243 246 247 242 235 236 243 229 210 204 199 196 198 203 214 227 236 238 247 260 266 282 284 290 295 301 305 312 317
233 236 239 242 244 246 250 251 254 254 256 253 251 250 249 246 243 239 228 219 227 239 236 209 207 197 203 207 203 206 218 233 245 254 259 268 277 279 282 288 295 300 308 315
236 238 242 247 248 247 251 253 255 256 253 243 242 246 251 250 239 228 221 229 232 233 219 206 203 205 206 207 201 202 213 228 242 254 258 257 266 275 280 287 293 299 305 310
232 233 239 246 253 254 250 251 249 252 253 239 235 238 244 246 228 215 220 247 246 216 204 203 199 202 202 204 201 203 211 224 238 247 253 258 265 272 278 287 294 299 303 308
228 228 235 241 248 258 258 250 243 244 246 244 239 235 236 239 230 227 231 236 233 212 205 206 202 207 209 203 196 203 214 225 235 241 247 254 261 268 274 282 286 293 298 302
226 228 233 237 242 253 259 249 241 238 239 238 233 227 227 233 221 222 252 241 213 214 206 208 214 215 214 201 198 206 214 224 234 239 243 250 256 262 270 275 280 286 291 296
222 227 233 237 238 246 255 255 245 240 239 240 235 224 217 228 249 240 233 214 205 213 212 213 215 221 215 197 199 210 219 228 235 237 242 247 252 258 266 274 280 285 287 292
223 225 226 224 230 240 244 244 242 237 234 241 240 227 217 217 229 236 210 205 206 202 211 220 222 221 209 198 206 216 223 233 239 236 234 243 250 256 260 266 272 279 284 286
223 227 227 225 227 229 223 218 224 226 222 234 250 241 220 206 194 191 187 193 199 203 204 211 214 212 208 213 220 225 231 249 261 255 246 247 252 254 259 263 267 273 279 284
224 227 228 234 232 223 219 216 217 221 216 217 232 224 203 191 185 184 184 188 193 194 196 200 202 208 218 222 227 232 238 243 244 246 244 246 251 253 256 259 264 268 274 279
Height
1489 1485 1483 1483 1482 1483 1486 1485 1485 1475 1470 1466 1466 1466 1466 1466 1466 1466 1465 1463 1461 1459 1457 1454 1451 1449 1446 1444 1441 1439 1436 1434 1433 1431 1429 1428 1426 1424 1423 1422 1422 1422 1423 1424
1489 1482 1480 1479 1476 1476 1477 1477 1475 1472 1468 1462 1463 1463 1463 1464 1464 1464 1463 1462 1460 1458 1456 1453 1451 1448 1446 1444 1441 1439 1436 1434 1432 1430 1428 1427 1425 1424 1422 1421 1421 1421 1421 1421
1489 1479 1479 1478 1466 1468 1469 1467 1468 1469 1465 1461 1461 1461 1461 1461 1461 1461 1461 1460 1459 1457 1455 1453 1451 1448 1446 1443 1441 1438 1436 1434 1432 1430 1427 1425 1424 1422 1421 1420 1419 1418 1418 1418
1490 1486 1484 1466 1458 1459 1461 1461 1461 1460 1459 1459 1459 1459 1459 1459 1459 1459 1458 1458 1457 1455 1453 1451 1449 1447 1445 1443 1440 1438 1436 1434 1431 1429 1427 1425 1423 1422 1420 1419 1417 1417 1416 1415
1492 1487 1473 1461 1459 1458 1461 1460 1456 1457 1457 1457 1457 1457 1456 1456 1456 1456 1456 1455 1454 1453 1451 1450 1448 1445 1443 1441 1439 1437 1435 1433 1431 1429 1427 1425 1423 1421 1420 1418 1416 1414 1413 1412
1491 1489 1479 1460 1458 1457 1461 1462 1454 1454 1455 1456 1456 1460 1456 1454 1454 1454 1453 1452 1451 1450 1449 1447 1445 1444 1442 1440 1438 1436 1434 1432 1431 1429 1426 1424 1422 1421 1419 1417 1415 1413 1411 1410
1492 1486 1471 1458 1457 1459 1466 1460 1454 1453 1453 1454 1454 1455 1453 1451 1451 1451 1450 1450 1449 1447 1446 1444 1443 1441 1439 1438 1436 1435 1433 1432 1429 1427 1425 1423 1421 1420 1417 1415 1413 1411 1409 1408
1483 1482 1471 1457 1457 1459 1456 1453 1452 1452 1452 1452 1451 1451 1450 1449 1448 1448 1447 1446 1445 1444 1443 1442 1440 1439 1437 1436 1435 1433 1432 1430 1428 1426 1424 1422 1420 1417 1415 1413 1411 1409 1407 1405
1469 1464 1455 1453 1452 1452 1451 1451 1450 1450 1449 1449 1448 1447 1446 1446 1445 1445 1444 1443 1442 1441 1440 1439 1437 1436 1434 1433 1432 1431 1429 1428 1426 1424 1422 1420 1418 1415 1413 1411 1409 1407 1405 1403
1461 1453 1450 1449 1449 1448 1448 1448 1447 1447 1446 1446 1445 1444 1443 1442 1441 1441 1440 1439 1438 1437 1436 1435 1434 1433 1432 1431 1429 1428 1426 1425 1423 1422 1420 1418 1416 1414 1412 1410 1407 1405 1403 1401
1457 1450 1447 1445 1445 1444 1444 1444 1444 1443 1443 1442 1441 1440 1439 1438 1437 1436 1436 1435 1435 1433 1432 1431 1431 1430 1429 1427 1426 1425 1423 1422 1421 1419 1418 1416 1414 1413 1410 1409 1407 1405 1402 1400
1450 1445 1445 1442 1441 1441 1440 1440 1440 1439 1438 1437 1437 1436 1435 1434 1433 1432 1431 1431 1430 1429 1428 1427 1427 1426 1425 1424 1423 1422 1420 1419 1418 1416 1415 1413 1411 1410 1408 1407 1405 1402 1400 1398
1441 1440 1439 1438 1437 1437 1436 1436 1435 1434 1433 1433 1432 1431 1430 1429 1429 1428 1427 1426 1425 1425 1424 1423 1422 1422 1421 1421 1420 1418 1417 1416 1415 1414 1412 1410 1409 1407 1405 1403 1402 1399 1397 1394
1436 1436 1434 1433 1433 1432 1431 1431 1430 1429 1428 1428 1427 1426 1425 1424 1424 1423 1422 1421 1420 1420 1419 1419 1418 1417 1417 1416 1416 1415 1414 1413 1412 1411 1409 1408 1406 1404 1402 1400 1397 1395 1394 1391
1429 1429 1428 1427 1427 1427 1426 1426 1425 1424 1423 1423 1422 1421 1420 1419 1418 1417 1417 1416 1415 1415 1414 1414 1413 1413 1413 1412 1411 1411 1410 1409 1408 1407 1406 1405 1403 1402 1400 1398 1396 1393 1390 1388
1422 1423 1422 1422 1421 1421 1421 1420 1419 1418 1418 1417 1417 1416 1416 1414 1413 1412 1412 1411 1410 1409 1409 1409 1409 1409 1409 1408 1408 1407 1406 1406 1405 1404 1403 1401 1400 1399 1397 1395 1393 1391 1388 1386
1417 1416 1416 1416 1415 1415 1415 1414 1414 1413 1413 1412 1412 1411 1410 1409 1408 1407 1406 1406 1406 1405 1405 1404 1404 1405 1404 1404 1404 1403 1403 1402 1401 1400 1399 1398 1397 1395 1394 1392 1390 1388 1386 1384
1410 1410 1410 1410 1410 1409 1409 1409 1408 1408 1407 1407 1407 1406 1405 1404 1403 1402 1402 1401 1401 1400 1400 1400 1400 1400 1400 1400 1400 1399 1399 1398 1397 1396 1396 1395 1394 1392 1391 1389 1387 1385 1383 1381
1403 1404 1404 1404 1404 1404 1403 1403 1402 1402 1402 1402 1401 1400 1400 1399 1398 1398 1397 1397 1396 1395 1395 1396 1396 1396 1396 1395 1395 1395 1394 1394 1393 1393 1392 1391 1390 1389 1387 1386 1384 1382 1380 1377
1398 1399 1399 1399 1399 1398 1398 1397 1397 1396 1396 1396 1395 1395 1394 1394 1393 1393 1393 1392 1391 1391 1391 1391 1391 1391 1391 1391 1391 1391 1390 1390 1389 1389 1388 1387 1386 1385 1384 1382 1380 1379 1377 1374
1395 1395 1395 1394 1394 1394 1393 1392 1391 1391 1391 1390 1390 1389 1389 1388 1389 1388 1388 1387 1387 1388 1387 1387 1387 1387 1387 1387 1387 1386 1386 1386 1385 1385 1384 1383 1382 1381 1380 1379 1377 1375 1373 1371
1391 1391 1391 1391 1390 1389 1388 1387 1387 1386 1386 1385 1385 1384 1384 1383 1384 1383 1383 1383 1383 1383 1383 1383 1382 1382 1382 1382 1382 1382 1382 1382 1381 1381 1380 1379 1378 1377 1376 1375 1374 1372 1370 1368
1388 1388 1387 1387 1386 1385 1384 1383 1382 1382 1381 1380 1380 1380 1379 1379 1379 1379 1379 1379 1379 1379 1378 1378 1378 1378 1378 1377 1377 1378 1378 1377 1377 1377 1376 1375 1374 1373 1372 1371 1370 1369 1367 1365
1384 1384 1383 1383 1382 1381 1380 1379 1378 1378 1377 1377 1376 1376 1376 1375 1375 1375 1375 1375 1374 1374 1374 1374 1374 1374 1374 1373 1373 1373 1373 1373 1373 1373 1372 1371 1371 1370 1369 1368 1367 1365 1364 1362
1380 1379 1379 1378 1377 1376 1376 1375 1374 1374 1373 1373 1372 1372 1372 1371 1371 1371 1371 1371 1371 1370 1370 1370 1370 1370 1370 1369 1369 1369 1369 1369 1369 1369 1368 1367 1367 1366 1365 1364 1363 1362 1361 1359
1375 1374 1374 1373 1373 1372 1371 1370 1370 1369 1369 1368 1368 1368 1368 1368 1368 1367 1367 1367 1367 1367 1367 1367 1367 1366 1366 1366 1366 1366 1366 1365 1365 1365 1364 1364 1363 1362 1361 1361 1360 1359 1358 1356
1369 1369 1368 1368 1367 1367 1366 1366 1365 1365 1364 1364 1364 1364 1364 1364 1364 1364 1363 1363 1363 1363 1363 1363 1363 1362 1362 1362 1362 1362 1362 1362 1361 1361 1360 1360 1359 1359 1358 1357 1356 1355 1354 1353